Погода в Биштюбинке

Россия / Астраханская область     46°20′15″N   47°57′36″E
темп.,
°C
ветер,
м/с
пор.,
м/с
влажн.,
%
обл.,
%
осадки,
мм/ч
давл.,
гПа
погр.,
м
28 июля, ср
ср2801:00+22юз3647100 0.0 1017257
04:00+22з3644100 0.0 1016220
07:00+23зсз5856100 0.0 1016318
10:00+28з5638100 0.0 1015922
13:00+32зсз462125 0.0 10143402
16:00+34ссз44166 0.0 10123751
19:00+32с651837 0.0 10122839
22:00+27с34270 0.0 101465
29 июля, чт
чт2901:00+25ссв22305 0.0 101316
04:00+23з47484 0.0 1014122
07:00+25сз35415 0.0 1014152
10:00+32ссз23215 0.0 10142080
13:00+35сз33165 0.0 10133528
16:00+35ююв531892 0.0 10123063
19:00+32ююв77248 0.0 10121209
22:00+25ю5105521 0.0 1013257
30 июля, пт
пт3001:00+24ю48601 0.0 1013163
04:00+23ююз35600 0.0 101283
07:00+25ююз34520 0.0 1013155
10:00+32ююз332439 0.0 10131225
13:00+36ююз341832 0.0 10113415
16:00+36ю741936 0.0 10103325
19:00+33ю652123 0.0 10111271
22:00+25ю47435 0.0 1011141
31 июля, сб
сб3101:00+24ю34480 0.0 101162
04:00+22ю22530 0.0 101126
07:00+25ююв11460 0.0 101275
10:00+33ююв23225 0.0 10111498
13:00+37ююв33155 0.0 10103249
16:00+37ю641474 0.0 10093374
19:00+34ю551687 0.0 1010892
22:00+26ююв33325 0.0 101143
1 августа, вс
вс101:00+25юв33330 0.0 101132
04:00+24вюв11380 0.0 101114
07:00+27св22320 0.0 101178
10:00+35всв45140 0.0 10111161
13:00+39в44110 0.0 10103871
16:00+39юв86110 0.0 10093831
19:00+36юв67130 0.0 1010947
22:00+26ююв35440 0.0 101172